Time,TemperatureF,DewpointF,PressureIn,WindDirection,WindDirectionDegrees,WindSpeedMPH,WindSpeedGustMPH,Humidity,HourlyPrecipIn,Conditions,Clouds,dailyrainin,SoftwareType,DateUTC
2016-02-06 00:02:00,26.2,22.9,29.28,West,270,1.7,-999.0,87,-99.99,,,0.00,,2016-02-06 05:02:00,
2016-02-06 00:07:00,25.9,22.8,29.28,West,270,0.0,-999.0,88,-99.99,,,0.00,,2016-02-06 05:07:00,
2016-02-06 00:12:00,25.5,22.7,29.28,West,270,0.0,-999.0,89,-99.99,,,0.00,,2016-02-06 05:12:00,
2016-02-06 00:17:00,25.3,22.5,29.27,West,270,1.1,-999.0,89,-99.99,,,0.00,,2016-02-06 05:17:00,
2016-02-06 00:23:00,25.2,22.7,29.27,West,270,0.0,-999.0,90,-99.99,,,0.00,,2016-02-06 05:23:00,
2016-02-06 00:29:00,24.8,22.3,29.27,WNW,292,0.0,-999.0,90,-99.99,,,0.00,,2016-02-06 05:29:00,
2016-02-06 00:34:00,24.6,22.3,29.27,West,270,0.0,-999.0,91,-99.99,,,0.00,,2016-02-06 05:34:00,
2016-02-06 00:44:00,24.3,22.3,29.28,WNW,292,0.0,-999.0,92,-99.99,,,0.00,,2016-02-06 05:44:00,
2016-02-06 00:49:00,24.1,22.1,29.28,West,270,0.0,-999.0,92,-99.99,,,0.00,,2016-02-06 05:49:00,
2016-02-06 00:54:00,23.9,21.9,29.28,West,270,0.0,-999.0,92,-99.99,,,0.00,,2016-02-06 05:54:00,
2016-02-06 01:00:00,23.5,21.5,29.28,WSW,247,0.0,-999.0,92,-99.99,,,0.00,,2016-02-06 06:00:00,
2016-02-06 01:05:00,23.4,21.7,29.28,NW,315,0.0,-999.0,93,-99.99,,,0.00,,2016-02-06 06:05:00,
2016-02-06 01:10:00,23.0,21.5,29.28,West,270,0.0,-999.0,94,-99.99,,,0.00,,2016-02-06 06:10:00,
2016-02-06 01:16:00,22.6,21.1,29.27,South,180,0.0,-999.0,94,-99.99,,,0.00,,2016-02-06 06:16:00,
2016-02-06 01:22:00,22.1,20.6,29.27,West,270,0.0,-999.0,94,-99.99,,,0.00,,2016-02-06 06:22:00,
2016-02-06 01:27:00,21.9,20.4,29.27,West,270,0.0,-999.0,94,-99.99,,,0.00,,2016-02-06 06:27:00,
2016-02-06 01:32:00,21.6,20.1,29.27,SW,225,0.0,-999.0,94,-99.99,,,0.00,,2016-02-06 06:32:00,
2016-02-06 01:37:00,21.4,19.9,29.27,South,180,0.0,-999.0,94,-99.99,,,0.00,,2016-02-06 06:37:00,
2016-02-06 01:42:00,21.0,19.5,29.27,South,180,0.0,-999.0,94,-99.99,,,0.00,,2016-02-06 06:42:00,
2016-02-06 01:58:00,20.3,18.9,29.27,West,270,0.0,-999.0,94,-99.99,,,0.00,,2016-02-06 06:58:00,
2016-02-06 02:03:00,20.1,18.7,29.27,West,270,0.0,-999.0,94,-99.99,,,0.00,,2016-02-06 07:03:00,
2016-02-06 02:09:00,20.1,19.6,29.27,South,180,0.0,-999.0,98,-99.99,,,0.00,,2016-02-06 07:09:00,
2016-02-06 02:14:00,19.9,19.2,29.27,South,180,0.0,-999.0,97,-99.99,,,0.00,,2016-02-06 07:14:00,
2016-02-06 02:19:00,19.8,18.8,29.27,West,270,0.0,-999.0,96,-99.99,,,0.00,,2016-02-06 07:19:00,
2016-02-06 02:24:00,19.6,18.6,29.27,West,270,0.0,-999.0,96,-99.99,,,0.00,,2016-02-06 07:24:00,
2016-02-06 02:29:00,19.6,18.9,29.27,West,270,0.0,-999.0,97,-99.99,,,0.00,,2016-02-06 07:29:00,
2016-02-06 02:40:00,19.2,18.7,29.27,SW,225,0.0,-999.0,98,-99.99,,,0.00,,2016-02-06 07:40:00,
2016-02-06 02:45:00,19.0,18.3,29.27,WSW,247,0.0,-999.0,97,-99.99,,,0.00,,2016-02-06 07:45:00,
2016-02-06 02:50:00,18.9,18.7,29.27,SSW,202,0.0,-999.0,99,-99.99,,,0.00,,2016-02-06 07:50:00,
2016-02-06 02:55:00,18.5,17.6,29.27,West,270,0.0,-999.0,96,-99.99,,,0.00,,2016-02-06 07:55:00,
2016-02-06 03:00:00,18.5,17.6,29.27,WNW,292,0.0,-999.0,96,-99.99,,,0.00,,2016-02-06 08:00:00,
2016-02-06 03:05:00,18.5,17.8,29.27,West,270,0.0,-999.0,97,-99.99,,,0.00,,2016-02-06 08:05:00,
2016-02-06 03:10:00,18.5,17.8,29.27,West,270,0.0,-999.0,97,-99.99,,,0.00,,2016-02-06 08:10:00,
2016-02-06 03:15:00,18.5,17.8,29.27,West,270,0.0,-999.0,97,-99.99,,,0.00,,2016-02-06 08:15:00,
2016-02-06 03:21:00,18.5,17.8,29.27,West,270,0.0,-999.0,97,-99.99,,,0.00,,2016-02-06 08:21:00,
2016-02-06 03:26:00,18.5,18.0,29.27,West,270,0.0,-999.0,98,-99.99,,,0.00,,2016-02-06 08:26:00,
2016-02-06 03:31:00,18.5,18.0,29.27,WNW,292,0.0,-999.0,98,-99.99,,,0.00,,2016-02-06 08:31:00,
2016-02-06 03:37:00,18.5,18.0,29.27,WNW,292,0.0,-999.0,98,-99.99,,,0.00,,2016-02-06 08:37:00,
2016-02-06 03:42:00,18.3,17.8,29.27,WNW,292,0.0,-999.0,98,-99.99,,,0.00,,2016-02-06 08:42:00,
2016-02-06 03:47:00,18.1,17.6,29.27,WNW,292,0.0,-999.0,98,-99.99,,,0.00,,2016-02-06 08:47:00,
2016-02-06 03:52:00,18.0,17.3,29.27,WNW,292,0.0,-999.0,97,-99.99,,,0.00,,2016-02-06 08:52:00,
2016-02-06 03:58:00,18.0,17.8,29.27,SW,225,0.0,-999.0,99,-99.99,,,0.00,,2016-02-06 08:58:00,
2016-02-06 04:08:00,17.4,16.5,29.26,West,270,0.0,-999.0,96,-99.99,,,0.00,,2016-02-06 09:08:00,
2016-02-06 04:13:00,17.4,16.7,29.26,West,270,0.0,-999.0,97,-99.99,,,0.00,,2016-02-06 09:13:00,
2016-02-06 04:18:00,17.4,16.7,29.26,WNW,292,0.0,-999.0,97,-99.99,,,0.00,,2016-02-06 09:18:00,
2016-02-06 04:24:00,17.6,17.1,29.26,West,270,0.0,-999.0,98,-99.99,,,0.00,,2016-02-06 09:24:00,
2016-02-06 04:29:00,17.6,17.1,29.26,West,270,0.0,-999.0,98,-99.99,,,0.00,,2016-02-06 09:29:00,
2016-02-06 04:34:00,17.6,17.1,29.26,WNW,292,0.0,-999.0,98,-99.99,,,0.00,,2016-02-06 09:34:00,
2016-02-06 04:39:00,17.6,17.1,29.26,West,270,0.0,-999.0,98,-99.99,,,0.00,,2016-02-06 09:39:00,
2016-02-06 04:44:00,17.6,17.1,29.26,West,270,0.0,-999.0,98,-99.99,,,0.00,,2016-02-06 09:44:00,
2016-02-06 04:50:00,17.6,17.1,29.26,West,270,0.0,-999.0,98,-99.99,,,0.00,,2016-02-06 09:50:00,
2016-02-06 04:55:00,17.6,17.1,29.26,West,270,0.0,-999.0,98,-99.99,,,0.00,,2016-02-06 09:55:00,
2016-02-06 05:00:00,17.6,17.1,29.26,West,270,0.0,-999.0,98,-99.99,,,0.00,,2016-02-06 10:00:00,
2016-02-06 05:05:00,17.6,17.1,29.27,West,270,0.0,-999.0,98,-99.99,,,0.00,,2016-02-06 10:05:00,
2016-02-06 05:11:00,17.6,17.1,29.27,WNW,292,0.0,-999.0,98,-99.99,,,0.00,,2016-02-06 10:11:00,
2016-02-06 05:17:00,17.6,17.1,29.27,West,270,0.0,-999.0,98,-99.99,,,0.00,,2016-02-06 10:17:00,
2016-02-06 05:22:00,17.6,17.1,29.27,West,270,0.0,-999.0,98,-99.99,,,0.00,,2016-02-06 10:22:00,
2016-02-06 05:27:00,17.6,17.1,29.27,WNW,292,0.0,-999.0,98,-99.99,,,0.00,,2016-02-06 10:27:00,
2016-02-06 05:32:00,17.6,17.1,29.27,West,270,0.0,-999.0,98,-99.99,,,0.00,,2016-02-06 10:32:00,
2016-02-06 05:37:00,17.6,17.1,29.27,West,270,0.0,-999.0,98,-99.99,,,0.00,,2016-02-06 10:37:00,
2016-02-06 05:42:00,17.6,17.1,29.27,West,270,0.0,-999.0,98,-99.99,,,0.00,,2016-02-06 10:42:00,
2016-02-06 05:48:00,17.4,16.9,29.27,West,270,0.0,-999.0,98,-99.99,,,0.00,,2016-02-06 10:48:00,
2016-02-06 05:59:00,17.2,16.7,29.27,West,270,0.0,-999.0,98,-99.99,,,0.00,,2016-02-06 10:59:00,
2016-02-06 06:04:00,17.2,16.7,29.27,West,270,0.0,-999.0,98,-99.99,,,0.00,,2016-02-06 11:04:00,
2016-02-06 06:14:00,16.9,16.4,29.27,WNW,292,0.0,-999.0,98,-99.99,,,0.00,,2016-02-06 11:14:00,
2016-02-06 06:19:00,16.9,16.4,29.27,West,270,0.0,-999.0,98,-99.99,,,0.00,,2016-02-06 11:19:00,
2016-02-06 06:25:00,16.9,16.4,29.28,West,270,0.0,-999.0,98,-99.99,,,0.00,,2016-02-06 11:25:00,
2016-02-06 06:31:00,16.9,16.4,29.28,West,270,0.0,-999.0,98,-99.99,,,0.00,,2016-02-06 11:31:00,
2016-02-06 06:37:00,16.9,16.7,29.28,South,180,0.0,-999.0,99,-99.99,,,0.00,,2016-02-06 11:37:00,
2016-02-06 06:42:00,16.9,16.7,29.27,WNW,292,0.0,-999.0,99,-99.99,,,0.00,,2016-02-06 11:42:00,
2016-02-06 06:47:00,17.2,17.0,29.27,WNW,292,0.0,-999.0,99,-99.99,,,0.00,,2016-02-06 11:47:00,
2016-02-06 06:52:00,17.6,17.4,29.27,WNW,292,0.0,-999.0,99,-99.99,,,0.00,,2016-02-06 11:52:00,
2016-02-06 06:57:00,17.8,17.6,29.27,WNW,292,0.0,-999.0,99,-99.99,,,0.00,,2016-02-06 11:57:00,
2016-02-06 07:08:00,18.0,17.8,29.27,West,270,0.0,-999.0,99,-99.99,,,0.00,,2016-02-06 12:08:00,
2016-02-06 07:13:00,18.0,17.8,29.27,WNW,292,0.0,-999.0,99,-99.99,,,0.00,,2016-02-06 12:13:00,
2016-02-06 07:18:00,17.8,17.6,29.27,West,270,0.0,-999.0,99,-99.99,,,0.00,,2016-02-06 12:18:00,
2016-02-06 07:29:00,18.0,17.8,29.27,SSE,157,0.0,-999.0,99,-99.99,,,0.00,,2016-02-06 12:29:00,
2016-02-06 07:34:00,18.5,18.3,29.27,SSW,202,0.0,-999.0,99,-99.99,,,0.00,,2016-02-06 12:34:00,
2016-02-06 07:40:00,18.5,18.3,29.27,WNW,292,0.0,-999.0,99,-99.99,,,0.00,,2016-02-06 12:40:00,
2016-02-06 07:45:00,19.2,19.0,29.27,South,180,0.0,-999.0,99,-99.99,,,0.00,,2016-02-06 12:45:00,
2016-02-06 07:50:00,19.6,19.4,29.27,SSE,157,0.0,-999.0,99,-99.99,,,0.00,,2016-02-06 12:50:00,
2016-02-06 07:56:00,19.4,19.2,29.27,West,270,0.0,-999.0,99,-99.99,,,0.00,,2016-02-06 12:56:00,
2016-02-06 08:01:00,19.6,19.4,29.27,SSW,202,0.0,-999.0,99,-99.99,,,0.00,,2016-02-06 13:01:00,
2016-02-06 08:06:00,19.4,19.2,29.27,SSE,157,0.0,-999.0,99,-99.99,,,0.00,,2016-02-06 13:06:00,
2016-02-06 08:11:00,19.4,19.2,29.27,South,180,0.0,-999.0,99,-99.99,,,0.00,,2016-02-06 13:11:00,
2016-02-06 08:17:00,19.4,19.2,29.27,WNW,292,0.0,-999.0,99,-99.99,,,0.00,,2016-02-06 13:17:00,
2016-02-06 08:22:00,19.6,19.4,29.27,SSE,157,0.0,-999.0,99,-99.99,,,0.00,,2016-02-06 13:22:00,
2016-02-06 08:27:00,20.7,20.5,29.27,SE,135,0.0,-999.0,99,-99.99,,,0.00,,2016-02-06 13:27:00,
2016-02-06 08:32:00,22.3,22.1,29.27,SSE,157,0.0,-999.0,99,-99.99,,,0.00,,2016-02-06 13:32:00,
2016-02-06 08:38:00,23.9,23.7,29.27,West,270,0.0,-999.0,99,-99.99,,,0.00,,2016-02-06 13:38:00,
2016-02-06 08:43:00,25.3,25.1,29.27,SSE,157,0.0,-999.0,99,-99.99,,,0.00,,2016-02-06 13:43:00,
2016-02-06 08:48:00,25.9,24.7,29.27,WSW,247,0.0,-999.0,95,-99.99,,,0.00,,2016-02-06 13:48:00,
2016-02-06 08:54:00,25.7,25.0,29.27,SSW,202,0.0,-999.0,97,-99.99,,,0.00,,2016-02-06 13:54:00,
2016-02-06 08:59:00,26.4,24.9,29.27,SSW,202,3.2,-999.0,94,-99.99,,,0.00,,2016-02-06 13:59:00,
2016-02-06 09:04:00,26.6,24.9,29.27,SW,225,3.7,-999.0,93,-99.99,,,0.00,,2016-02-06 14:04:00,
2016-02-06 09:09:00,27.5,26.0,29.27,SSW,202,2.7,-999.0,94,-99.99,,,0.00,,2016-02-06 14:09:00,
2016-02-06 09:15:00,28.2,25.4,29.27,South,180,3.2,-999.0,89,-99.99,,,0.00,,2016-02-06 14:15:00,
2016-02-06 09:20:00,29.1,26.3,29.27,SW,225,2.2,-999.0,89,-99.99,,,0.00,,2016-02-06 14:20:00,
2016-02-06 09:25:00,29.3,25.6,29.27,SSW,202,3.2,-999.0,86,-99.99,,,0.00,,2016-02-06 14:25:00,
2016-02-06 09:36:00,30.9,26.6,29.26,WSW,247,2.2,-999.0,84,-99.99,,,0.00,,2016-02-06 14:36:00,
2016-02-06 09:41:00,31.5,26.6,29.26,SSW,202,4.2,-999.0,82,-99.99,,,0.00,,2016-02-06 14:41:00,
2016-02-06 09:46:00,31.3,26.1,29.26,SW,225,3.7,-999.0,81,-99.99,,,0.00,,2016-02-06 14:46:00,
2016-02-06 09:52:00,32.0,26.8,29.26,SSW,202,3.2,-999.0,81,-99.99,,,0.00,,2016-02-06 14:52:00,
2016-02-06 09:57:00,32.9,26.8,29.26,South,180,2.7,-999.0,78,-99.99,,,0.00,,2016-02-06 14:57:00,
2016-02-06 10:02:00,33.4,26.6,29.26,SW,225,3.2,-999.0,76,-99.99,,,0.00,,2016-02-06 15:02:00,
2016-02-06 10:08:00,34.5,26.7,29.26,SSW,202,2.2,-999.0,73,-99.99,,,0.00,,2016-02-06 15:08:00,
2016-02-06 10:14:00,35.8,27.3,29.25,SSW,202,2.7,-999.0,71,-99.99,,,0.00,,2016-02-06 15:14:00,
2016-02-06 10:19:00,36.9,27.3,29.25,SSW,202,3.7,-999.0,68,-99.99,,,0.00,,2016-02-06 15:19:00,
2016-02-06 10:24:00,37.4,28.2,29.25,WSW,247,2.2,-999.0,69,-99.99,,,0.00,,2016-02-06 15:24:00,
2016-02-06 10:29:00,38.1,27.7,29.25,West,270,3.7,-999.0,66,-99.99,,,0.00,,2016-02-06 15:29:00,
2016-02-06 10:35:00,37.8,25.9,29.25,South,180,2.7,-999.0,62,-99.99,,,0.00,,2016-02-06 15:35:00,
2016-02-06 10:41:00,39.0,27.5,29.25,SSW,202,1.7,-999.0,63,-99.99,,,0.00,,2016-02-06 15:41:00,
2016-02-06 10:46:00,39.6,26.4,29.25,West,270,3.7,-999.0,59,-99.99,,,0.00,,2016-02-06 15:46:00,
2016-02-06 10:51:00,38.3,24.8,29.25,South,180,4.7,-999.0,58,-99.99,,,0.00,,2016-02-06 15:51:00,
2016-02-06 10:56:00,38.5,25.0,29.25,South,180,4.2,-999.0,58,-99.99,,,0.00,,2016-02-06 15:56:00,
2016-02-06 11:02:00,40.1,26.5,29.25,West,270,2.2,-999.0,58,-99.99,,,0.00,,2016-02-06 16:02:00,
2016-02-06 11:12:00,39.9,25.0,29.25,SSW,202,3.2,-999.0,55,-99.99,,,0.00,,2016-02-06 16:12:00,
2016-02-06 11:23:00,40.5,24.2,29.25,SSW,202,4.7,-999.0,52,-99.99,,,0.00,,2016-02-06 16:23:00,
2016-02-06 11:28:00,40.3,24.5,29.25,SSW,202,2.7,-999.0,53,-99.99,,,0.00,,2016-02-06 16:28:00,
2016-02-06 11:34:00,39.7,23.5,29.25,SW,225,3.7,-999.0,52,-99.99,,,0.00,,2016-02-06 16:34:00,
2016-02-06 11:39:00,40.1,23.9,29.25,West,270,5.8,-999.0,52,-99.99,,,0.00,,2016-02-06 16:39:00,
2016-02-06 11:44:00,40.8,24.5,29.25,West,270,2.7,-999.0,52,-99.99,,,0.00,,2016-02-06 16:44:00,
2016-02-06 11:49:00,41.4,26.0,29.25,West,270,3.7,-999.0,54,-99.99,,,0.00,,2016-02-06 16:49:00,
2016-02-06 11:54:00,39.9,23.2,29.24,SW,225,4.2,-999.0,51,-99.99,,,0.00,,2016-02-06 16:54:00,
2016-02-06 12:05:00,40.5,23.3,29.23,ESE,112,5.3,-999.0,50,-99.99,,,0.00,,2016-02-06 17:05:00,
2016-02-06 12:10:00,41.2,24.9,29.23,SW,225,3.2,-999.0,52,-99.99,,,0.00,,2016-02-06 17:10:00,
2016-02-06 12:15:00,41.5,24.7,29.23,West,270,2.7,-999.0,51,-99.99,,,0.00,,2016-02-06 17:15:00,
2016-02-06 12:20:00,42.8,25.4,29.23,WSW,247,2.2,-999.0,50,-99.99,,,0.00,,2016-02-06 17:20:00,
2016-02-06 12:25:00,42.4,23.6,29.23,SE,135,4.7,-999.0,47,-99.99,,,0.00,,2016-02-06 17:25:00,
2016-02-06 12:31:00,42.4,24.6,29.23,WSW,247,5.8,-999.0,49,-99.99,,,0.00,,2016-02-06 17:31:00,
2016-02-06 12:36:00,42.8,24.5,29.23,WSW,247,4.2,-999.0,48,-99.99,,,0.00,,2016-02-06 17:36:00,
2016-02-06 12:41:00,43.3,25.9,29.22,WSW,247,4.2,-999.0,50,-99.99,,,0.00,,2016-02-06 17:41:00,
2016-02-06 12:46:00,43.0,24.1,29.22,SSW,202,5.3,-999.0,47,-99.99,,,0.00,,2016-02-06 17:46:00,
2016-02-06 12:52:00,42.8,24.9,29.21,SW,225,2.7,-999.0,49,-99.99,,,0.00,,2016-02-06 17:52:00,
2016-02-06 12:58:00,42.4,24.6,29.21,SSW,202,4.7,-999.0,49,-99.99,,,0.00,,2016-02-06 17:58:00,
2016-02-06 13:03:00,43.0,25.1,29.21,South,180,4.2,-999.0,49,-99.99,,,0.00,,2016-02-06 18:03:00,
2016-02-06 13:08:00,42.4,23.6,29.21,SSW,202,4.2,-999.0,47,-99.99,,,0.00,,2016-02-06 18:08:00,
2016-02-06 13:13:00,42.8,25.4,29.21,WSW,247,4.7,-999.0,50,-99.99,,,0.00,,2016-02-06 18:13:00,
2016-02-06 13:18:00,43.5,24.6,29.20,WSW,247,5.3,-999.0,47,-99.99,,,0.00,,2016-02-06 18:18:00,
2016-02-06 13:23:00,42.4,23.6,29.20,SW,225,4.2,-999.0,47,-99.99,,,0.00,,2016-02-06 18:23:00,
2016-02-06 13:28:00,43.0,24.6,29.19,West,270,3.2,-999.0,48,-99.99,,,0.00,,2016-02-06 18:28:00,
2016-02-06 13:34:00,43.0,25.1,29.19,WSW,247,3.7,-999.0,49,-99.99,,,0.00,,2016-02-06 18:34:00,
2016-02-06 13:39:00,43.3,25.9,29.19,WSW,247,3.7,-999.0,50,-99.99,,,0.00,,2016-02-06 18:39:00,
2016-02-06 13:44:00,43.2,24.3,29.19,West,270,4.2,-999.0,47,-99.99,,,0.00,,2016-02-06 18:44:00,
2016-02-06 13:49:00,43.2,25.3,29.19,SSW,202,6.3,-999.0,49,-99.99,,,0.00,,2016-02-06 18:49:00,
2016-02-06 13:54:00,43.2,26.3,29.18,WSW,247,2.7,-999.0,51,-99.99,,,0.00,,2016-02-06 18:54:00,
2016-02-06 14:00:00,43.9,26.5,29.18,SW,225,2.7,-999.0,50,-99.99,,,0.00,,2016-02-06 19:00:00,
2016-02-06 14:06:00,43.3,24.4,29.18,SW,225,3.2,-999.0,47,-99.99,,,0.00,,2016-02-06 19:06:00,
2016-02-06 14:11:00,42.6,25.3,29.18,WSW,247,3.7,-999.0,50,-99.99,,,0.00,,2016-02-06 19:11:00,
2016-02-06 14:16:00,42.1,24.8,29.17,South,180,5.3,-999.0,50,-99.99,,,0.00,,2016-02-06 19:16:00,
2016-02-06 14:21:00,41.4,24.6,29.17,South,180,3.7,-999.0,51,-99.99,,,0.00,,2016-02-06 19:21:00,
2016-02-06 14:27:00,41.5,24.7,29.17,SW,225,3.7,-999.0,51,-99.99,,,0.00,,2016-02-06 19:27:00,
2016-02-06 14:32:00,42.3,25.4,29.17,West,270,3.2,-999.0,51,-99.99,,,0.00,,2016-02-06 19:32:00,
2016-02-06 14:37:00,42.8,25.9,29.17,WSW,247,2.2,-999.0,51,-99.99,,,0.00,,2016-02-06 19:37:00,
2016-02-06 14:42:00,41.9,25.1,29.17,South,180,2.7,-999.0,51,-99.99,,,0.00,,2016-02-06 19:42:00,
2016-02-06 14:48:00,42.8,25.9,29.17,South,180,4.7,-999.0,51,-99.99,,,0.00,,2016-02-06 19:48:00,
2016-02-06 14:53:00,41.5,25.6,29.17,SE,135,2.7,-999.0,53,-99.99,,,0.00,,2016-02-06 19:53:00,
2016-02-06 14:59:00,41.4,24.6,29.17,South,180,5.8,-999.0,51,-99.99,,,0.00,,2016-02-06 19:59:00,
2016-02-06 15:05:00,41.9,25.1,29.16,SSW,202,3.2,-999.0,51,-99.99,,,0.00,,2016-02-06 20:05:00,
2016-02-06 15:10:00,40.5,23.8,29.16,SE,135,4.2,-999.0,51,-99.99,,,0.00,,2016-02-06 20:10:00,
2016-02-06 15:15:00,40.3,24.1,29.16,West,270,3.2,-999.0,52,-99.99,,,0.00,,2016-02-06 20:15:00,
2016-02-06 15:20:00,41.4,25.1,29.16,SW,225,3.7,-999.0,52,-99.99,,,0.00,,2016-02-06 20:20:00,
2016-02-06 15:26:00,41.4,24.1,29.17,West,270,3.7,-999.0,50,-99.99,,,0.00,,2016-02-06 20:26:00,
2016-02-06 15:31:00,41.4,24.1,29.17,West,270,3.7,-999.0,50,-99.99,,,0.00,,2016-02-06 20:31:00,
2016-02-06 15:37:00,40.6,23.9,29.17,SSW,202,4.2,-999.0,51,-99.99,,,0.00,,2016-02-06 20:37:00,
2016-02-06 15:42:00,41.0,24.2,29.16,SW,225,3.2,-999.0,51,-99.99,,,0.00,,2016-02-06 20:42:00,
2016-02-06 15:48:00,40.6,22.9,29.16,SW,225,3.7,-999.0,49,-99.99,,,0.00,,2016-02-06 20:48:00,
2016-02-06 15:53:00,40.8,23.1,29.16,NNW,337,2.7,-999.0,49,-99.99,,,0.00,,2016-02-06 20:53:00,
2016-02-06 15:58:00,40.3,22.6,29.16,SW,225,4.7,-999.0,49,-99.99,,,0.00,,2016-02-06 20:58:00,
2016-02-06 16:14:00,38.3,22.7,29.16,SW,225,2.7,-999.0,53,-99.99,,,0.00,,2016-02-06 21:14:00,
2016-02-06 16:19:00,38.1,22.5,29.16,SW,225,3.7,-999.0,53,-99.99,,,0.00,,2016-02-06 21:19:00,
2016-02-06 16:25:00,38.3,23.1,29.17,SW,225,3.2,-999.0,54,-99.99,,,0.00,,2016-02-06 21:25:00,
2016-02-06 16:30:00,38.3,22.2,29.17,SSW,202,3.7,-999.0,52,-99.99,,,0.00,,2016-02-06 21:30:00,
2016-02-06 16:35:00,38.3,22.7,29.17,SW,225,3.7,-999.0,53,-99.99,,,0.00,,2016-02-06 21:35:00,
2016-02-06 16:41:00,37.9,22.3,29.16,SSW,202,2.2,-999.0,53,-99.99,,,0.00,,2016-02-06 21:41:00,
2016-02-06 16:47:00,37.2,21.2,29.16,SW,225,3.2,-999.0,52,-99.99,,,0.00,,2016-02-06 21:47:00,
2016-02-06 16:52:00,36.9,21.8,29.16,WSW,247,2.2,-999.0,54,-99.99,,,0.00,,2016-02-06 21:52:00,
2016-02-06 16:58:00,36.5,22.3,29.16,West,270,3.2,-999.0,56,-99.99,,,0.00,,2016-02-06 21:58:00,
2016-02-06 17:03:00,36.3,22.1,29.17,SW,225,2.7,-999.0,56,-99.99,,,0.00,,2016-02-06 22:03:00,
2016-02-06 17:09:00,36.0,22.2,29.17,SW,225,1.7,-999.0,57,-99.99,,,0.00,,2016-02-06 22:09:00,
2016-02-06 17:14:00,35.6,21.9,29.17,West,270,2.2,-999.0,57,-99.99,,,0.00,,2016-02-06 22:14:00,
2016-02-06 17:20:00,35.1,22.6,29.17,SE,135,2.2,-999.0,60,-99.99,,,0.00,,2016-02-06 22:20:00,
2016-02-06 17:25:00,34.9,22.4,29.17,SW,225,2.7,-999.0,60,-99.99,,,0.00,,2016-02-06 22:25:00,
2016-02-06 17:30:00,34.3,21.8,29.17,West,270,1.7,-999.0,60,-99.99,,,0.00,,2016-02-06 22:30:00,
2016-02-06 17:36:00,34.0,22.0,29.17,South,180,2.2,-999.0,61,-99.99,,,0.00,,2016-02-06 22:36:00,
2016-02-06 17:41:00,33.6,23.1,29.17,SW,225,1.7,-999.0,65,-99.99,,,0.00,,2016-02-06 22:41:00,
2016-02-06 17:46:00,33.1,22.2,29.17,SSW,202,2.2,-999.0,64,-99.99,,,0.00,,2016-02-06 22:46:00,
2016-02-06 17:51:00,32.7,22.2,29.17,SW,225,2.2,-999.0,65,-99.99,,,0.00,,2016-02-06 22:51:00,
2016-02-06 17:57:00,32.4,22.3,29.17,NNE,22,1.1,-999.0,66,-99.99,,,0.00,,2016-02-06 22:57:00,
2016-02-06 18:02:00,31.8,22.1,29.17,NW,315,0.0,-999.0,67,-99.99,,,0.00,,2016-02-06 23:02:00,
2016-02-06 18:07:00,31.5,22.2,29.17,SSE,157,0.0,-999.0,68,-99.99,,,0.00,,2016-02-06 23:07:00,
2016-02-06 18:13:00,30.9,21.9,29.17,SSW,202,0.0,-999.0,69,-99.99,,,0.00,,2016-02-06 23:13:00,
2016-02-06 18:18:00,30.4,22.8,29.18,South,180,1.7,-999.0,73,-99.99,,,0.00,,2016-02-06 23:18:00,
2016-02-06 18:24:00,30.0,21.7,29.18,SSE,157,0.0,-999.0,71,-99.99,,,0.00,,2016-02-06 23:24:00,
2016-02-06 18:29:00,29.8,21.9,29.18,SSE,157,0.0,-999.0,72,-99.99,,,0.00,,2016-02-06 23:29:00,
2016-02-06 18:35:00,29.5,22.6,29.18,SSE,157,0.0,-999.0,75,-99.99,,,0.00,,2016-02-06 23:35:00,
2016-02-06 18:40:00,29.3,21.7,29.17,SSE,157,0.0,-999.0,73,-99.99,,,0.00,,2016-02-06 23:40:00,
2016-02-06 18:46:00,29.1,21.8,29.17,West,270,0.0,-999.0,74,-99.99,,,0.00,,2016-02-06 23:46:00,
2016-02-06 18:51:00,28.9,21.7,29.18,NNW,337,0.0,-999.0,74,-99.99,,,0.00,,2016-02-06 23:51:00,
2016-02-06 18:56:00,28.6,21.4,29.18,WNW,292,0.0,-999.0,74,-99.99,,,0.00,,2016-02-06 23:56:00,
2016-02-06 19:01:00,28.6,21.7,29.18,WNW,292,0.0,-999.0,75,-99.99,,,0.00,,2016-02-07 00:01:00,
2016-02-06 19:07:00,28.4,21.5,29.18,South,180,0.0,-999.0,75,-99.99,,,0.00,,2016-02-07 00:07:00,
2016-02-06 19:12:00,28.6,22.0,29.18,South,180,0.0,-999.0,76,-99.99,,,0.00,,2016-02-07 00:12:00,
2016-02-06 19:17:00,28.8,21.9,29.18,South,180,0.0,-999.0,75,-99.99,,,0.00,,2016-02-07 00:17:00,
2016-02-06 19:23:00,28.9,22.0,29.18,South,180,0.0,-999.0,75,-99.99,,,0.00,,2016-02-07 00:23:00,
2016-02-06 19:28:00,29.1,21.8,29.18,South,180,0.0,-999.0,74,-99.99,,,0.00,,2016-02-07 00:28:00,
2016-02-06 19:33:00,29.1,21.8,29.18,South,180,0.0,-999.0,74,-99.99,,,0.00,,2016-02-07 00:33:00,
2016-02-06 19:38:00,29.3,22.0,29.18,South,180,0.0,-999.0,74,-99.99,,,0.00,,2016-02-07 00:38:00,
2016-02-06 19:44:00,29.3,23.0,29.18,West,270,0.0,-999.0,77,-99.99,,,0.00,,2016-02-07 00:44:00,
2016-02-06 19:49:00,29.5,22.9,29.18,WSW,247,0.0,-999.0,76,-99.99,,,0.00,,2016-02-07 00:49:00,
2016-02-06 19:54:00,29.7,23.1,29.18,SSE,157,0.0,-999.0,76,-99.99,,,0.00,,2016-02-07 00:54:00,
2016-02-06 20:00:00,29.7,23.1,29.18,SSE,157,0.0,-999.0,76,-99.99,,,0.00,,2016-02-07 01:00:00,
2016-02-06 20:05:00,29.8,22.8,29.18,SSE,157,0.0,-999.0,75,-99.99,,,0.00,,2016-02-07 01:05:00,
2016-02-06 20:10:00,29.8,22.8,29.18,SSE,157,0.0,-999.0,75,-99.99,,,0.00,,2016-02-07 01:10:00,
2016-02-06 20:21:00,30.0,23.4,29.18,SSE,157,0.0,-999.0,76,-99.99,,,0.00,,2016-02-07 01:21:00,
2016-02-06 20:31:00,30.0,24.0,29.18,WNW,292,0.0,-999.0,78,-99.99,,,0.00,,2016-02-07 01:31:00,
2016-02-06 20:36:00,30.2,24.2,29.18,West,270,0.0,-999.0,78,-99.99,,,0.00,,2016-02-07 01:36:00,
2016-02-06 20:42:00,30.2,23.9,29.18,NE,45,0.0,-999.0,77,-99.99,,,0.00,,2016-02-07 01:42:00,
2016-02-06 20:48:00,30.2,23.5,29.18,NE,45,0.0,-999.0,76,-99.99,,,0.00,,2016-02-07 01:48:00,
2016-02-06 20:53:00,30.4,23.7,29.17,SW,225,0.0,-999.0,76,-99.99,,,0.00,,2016-02-07 01:53:00,
2016-02-06 20:58:00,30.4,24.1,29.17,SW,225,0.0,-999.0,77,-99.99,,,0.00,,2016-02-07 01:58:00,
2016-02-06 21:03:00,30.4,24.1,29.17,WNW,292,0.0,-999.0,77,-99.99,,,0.00,,2016-02-07 02:03:00,
2016-02-06 21:13:00,30.6,24.2,29.16,West,270,0.0,-999.0,77,-99.99,,,0.00,,2016-02-07 02:13:00,
2016-02-06 21:18:00,30.6,24.2,29.16,East,90,0.0,-999.0,77,-99.99,,,0.00,,2016-02-07 02:18:00,
2016-02-06 21:28:00,30.9,24.8,29.16,SW,225,0.0,-999.0,78,-99.99,,,0.00,,2016-02-07 02:28:00,
2016-02-06 21:33:00,31.1,25.3,29.16,SSW,202,0.0,-999.0,79,-99.99,,,0.00,,2016-02-07 02:33:00,
2016-02-06 21:38:00,31.3,25.5,29.15,SSE,157,0.0,-999.0,79,-99.99,,,0.00,,2016-02-07 02:38:00,
2016-02-06 21:48:00,31.3,25.5,29.15,West,270,0.0,-999.0,79,-99.99,,,0.00,,2016-02-07 02:48:00,
2016-02-06 21:53:00,31.3,25.8,29.15,SE,135,0.0,-999.0,80,-99.99,,,0.00,,2016-02-07 02:53:00,
2016-02-06 21:58:00,31.5,26.0,29.15,SSW,202,0.0,-999.0,80,-99.99,,,0.00,,2016-02-07 02:58:00,
2016-02-06 22:04:00,31.6,25.8,29.15,SW,225,0.0,-999.0,79,-99.99,,,0.00,,2016-02-07 03:04:00,
2016-02-06 22:10:00,31.8,26.0,29.15,SE,135,0.0,-999.0,79,-99.99,,,0.00,,2016-02-07 03:10:00,
2016-02-06 22:15:00,31.8,26.0,29.15,West,270,0.0,-999.0,79,-99.99,,,0.00,,2016-02-07 03:15:00,
2016-02-06 22:20:00,31.8,26.0,29.15,NNW,337,0.0,-999.0,79,-99.99,,,0.00,,2016-02-07 03:20:00,
2016-02-06 22:25:00,31.6,25.8,29.15,SSW,202,0.0,-999.0,79,-99.99,,,0.00,,2016-02-07 03:25:00,
2016-02-06 22:30:00,31.6,26.1,29.15,SSW,202,0.0,-999.0,80,-99.99,,,0.00,,2016-02-07 03:30:00,
2016-02-06 22:35:00,31.8,26.3,29.15,SSW,202,0.0,-999.0,80,-99.99,,,0.00,,2016-02-07 03:35:00,
2016-02-06 22:41:00,31.8,26.0,29.14,NW,315,0.0,-999.0,79,-99.99,,,0.00,,2016-02-07 03:41:00,
2016-02-06 22:46:00,31.8,26.0,29.14,South,180,0.0,-999.0,79,-99.99,,,0.00,,2016-02-07 03:46:00,
2016-02-06 22:51:00,31.8,26.3,29.14,West,270,0.0,-999.0,80,-99.99,,,0.00,,2016-02-07 03:51:00,
2016-02-06 22:56:00,31.6,25.8,29.14,SSW,202,0.0,-999.0,79,-99.99,,,0.00,,2016-02-07 03:56:00,
2016-02-06 23:01:00,31.6,25.8,29.13,South,180,0.0,-999.0,79,-99.99,,,0.00,,2016-02-07 04:01:00,
2016-02-06 23:06:00,31.6,25.8,29.13,SSW,202,0.0,-999.0,79,-99.99,,,0.00,,2016-02-07 04:06:00,
2016-02-06 23:12:00,31.6,25.8,29.13,WSW,247,0.0,-999.0,79,-99.99,,,0.00,,2016-02-07 04:12:00,
2016-02-06 23:17:00,31.6,25.8,29.13,SSE,157,0.0,-999.0,79,-99.99,,,0.00,,2016-02-07 04:17:00,